Junction City, KY

2:00 PM EST on February 12, 2016 (GMT -0500)
Powell

Weather History for KDVK - June, 2013

Change the Weather History Date:

Saturday, June 29, 2013

  Actual Average (KLEX) Record (KLEX)
Temperature  
Mean Temperature 72 °F 76 °F  
Max Temperature 82 °F 86 °F 104 °F (1936)
Min Temperature 62 °F 66 °F 50 °F (1923)
Degree Days  
Heating Degree Days 0 0  
Month to date heating degree days 8  
Since 1 June heating degree days 8  
Since 1 July heating degree days 4608  
Cooling Degree Days 7 11  
Month to date cooling degree days 231  
Year to date cooling degree days 338  
Since 1 June cooling degree days 231  
Growing Degree Days 22 (Base 50)    
Moisture  
Dew Point 62 °F    
Average Humidity 72    
Maximum Humidity 94    
Minimum Humidity 51    
Precipitation  
Precipitation 0.00 in 0.12 in 5.04 in (1998)
Month to date precipitation 4.30  
Year to date precipitation 23.63  
Snow  
Snow 0.00 in 0.00 in - ()
Month to date snowfall 0.0  
Since 1 June snowfall 0.0  
Since 1 July snowfall 13.0  
Snow Depth -    
Sea Level Pressure  
Sea Level Pressure 29.68 in    
Wind  
Wind Speed 4 mph (WSW)    
Max Wind Speed 14 mph    
Max Gust Speed 21 mph    
Visibility 10 miles    
Events Rain    
T = Trace of Precipitation, MM = Missing Value Source: NWS Daily Summary

Daily Weather History Graph

Daily Weather History Graph

Search for Another Location

Airport or City:

Trip Planner

Search our weather history database for the weather conditions in past years. The results will help you decide how hot, cold, wet, or windy it might be!

Date:

Astronomy

Jun. 29, 2013 Rise Set
Actual Time 6:20 AM EDT 9:04 PM EDT
Civil Twilight 5:49 AM EDT 9:35 PM EDT
Nautical Twilight 5:10 AM EDT 10:14 PM EDT
Astronomical Twilight 4:26 AM EDT 10:58 PM EDT
Moon 12:41 AM EDT (6/29) 1:22 PM EDT (6/29)
Length of Visible Light 15h 46m
Length of Day
14h 43m
Waning Gibbous, 56% of the Moon is Illuminated
Jun 29
Waning Gibbous
Jun 30
Last Quarter
Jul 8
New
Jul 15
First Quarter
Jul 22
Full

Hourly Weather History & Observations

Time (EDT) Temp. Heat Index Dew Point Humidity Pressure Visibility Wind Dir Wind Speed Gust Speed Precip Events Conditions
12:15 AM 64.4 °F - 60.8 °F 88% 29.70 in 10.0 mi Calm Calm - N/A   Clear
12:35 AM 64.4 °F - 60.8 °F 88% 29.70 in 10.0 mi Calm Calm - N/A   Clear
12:55 AM 64.4 °F - 60.8 °F 88% 29.70 in 10.0 mi Calm Calm - N/A   Mostly Cloudy
1:15 AM 64.4 °F - 60.8 °F 88% 29.69 in 10.0 mi Calm Calm - N/A   Scattered Clouds
1:35 AM 64.4 °F - 60.8 °F 88% 29.69 in 10.0 mi SSW 3.5 mph - N/A   Scattered Clouds
1:55 AM 64.4 °F - 60.8 °F 88% 29.68 in 10.0 mi Calm Calm - N/A   Scattered Clouds
2:15 AM 66.2 °F - 60.8 °F 83% 29.67 in 10.0 mi Calm Calm - N/A   Clear
2:35 AM 64.4 °F - 59.0 °F 83% 29.67 in 10.0 mi WSW 4.6 mph - N/A   Clear
2:55 AM 62.6 °F - 60.8 °F 94% 29.67 in 10.0 mi South 4.6 mph - N/A   Clear
3:15 AM 62.6 °F - 60.8 °F 94% 29.67 in 10.0 mi SSW 4.6 mph - N/A   Clear
3:35 AM 62.6 °F - 60.8 °F 94% 29.67 in 10.0 mi Calm Calm - N/A   Clear
3:55 AM 62.6 °F - 60.8 °F 94% 29.66 in 10.0 mi Calm Calm - N/A   Clear
4:15 AM 62.6 °F - 60.8 °F 94% 29.66 in 10.0 mi Calm Calm - N/A   Clear
4:35 AM 62.6 °F - 60.8 °F 94% 29.67 in 10.0 mi Calm Calm - N/A   Clear
4:55 AM 62.6 °F - 60.8 °F 94% 29.67 in 10.0 mi Calm Calm - N/A   Clear
5:15 AM 62.6 °F - 60.8 °F 94% 29.67 in 10.0 mi Calm Calm - N/A   Clear
5:35 AM 62.6 °F - 60.8 °F 94% 29.67 in 10.0 mi SSW 3.5 mph - N/A   Mostly Cloudy
5:55 AM 62.6 °F - 60.8 °F 94% 29.68 in 10.0 mi Calm Calm - N/A   Overcast
6:15 AM 62.6 °F - 60.8 °F 94% 29.68 in 10.0 mi Calm Calm - N/A   Overcast
6:35 AM 62.6 °F - 60.8 °F 94% 29.68 in 10.0 mi Calm Calm - N/A   Mostly Cloudy
6:55 AM 62.6 °F - 60.8 °F 94% 29.68 in 10.0 mi Calm Calm - N/A   Overcast
7:15 AM 64.4 °F - 62.6 °F 94% 29.69 in 10.0 mi SW 5.8 mph - N/A   Overcast
7:35 AM 64.4 °F - 62.6 °F 94% 29.69 in 10.0 mi Calm Calm - N/A   Scattered Clouds
7:55 AM 66.2 °F - 62.6 °F 88% 29.69 in 10.0 mi South 3.5 mph - N/A   Clear
8:15 AM 68.0 °F - 62.6 °F 83% 29.69 in 10.0 mi SSW 3.5 mph - N/A   Clear
8:35 AM 69.8 °F - 62.6 °F 78% 29.69 in 10.0 mi WSW 4.6 mph - N/A   Clear
8:55 AM 71.6 °F - 62.6 °F 73% 29.69 in 10.0 mi West 3.5 mph - N/A   Clear
9:15 AM 73.4 °F - 62.6 °F 69% 29.69 in 10.0 mi West 5.8 mph - N/A   Clear
9:35 AM 73.4 °F - 60.8 °F 65% 29.69 in 10.0 mi West 4.6 mph - N/A   Clear
9:55 AM 75.2 °F - 60.8 °F 61% 29.69 in 10.0 mi West 6.9 mph - N/A   Clear
10:15 AM 77.0 °F - 60.8 °F 57% 29.69 in 10.0 mi West 5.8 mph - N/A   Clear
10:35 AM 77.0 °F - 60.8 °F 57% 29.69 in 10.0 mi WSW 5.8 mph - N/A   Clear
10:55 AM 77.0 °F - 60.8 °F 57% 29.68 in 10.0 mi WSW 8.1 mph - N/A   Clear
11:15 AM 78.8 °F - 60.8 °F 54% 29.69 in 10.0 mi West 8.1 mph - N/A   Clear
11:35 AM 78.8 °F - 62.6 °F 57% 29.69 in 10.0 mi WSW 5.8 mph - N/A   Clear
11:55 AM 80.6 °F 81.8 °F 62.6 °F 54% 29.68 in 10.0 mi West 8.1 mph 16.1 mph N/A   Mostly Cloudy
12:15 PM 78.8 °F - 60.8 °F 54% 29.69 in 10.0 mi West 10.4 mph - N/A   Overcast
12:35 PM 78.8 °F - 60.8 °F 54% 29.69 in 10.0 mi WSW 10.4 mph 17.3 mph N/A   Overcast
12:55 PM 80.6 °F 81.8 °F 62.6 °F 54% 29.69 in 10.0 mi WSW 11.5 mph - N/A   Overcast
1:15 PM 80.6 °F 81.8 °F 62.6 °F 54% 29.68 in 10.0 mi West 11.5 mph - N/A   Scattered Clouds
1:35 PM 80.6 °F 81.8 °F 62.6 °F 54% 29.68 in 10.0 mi WSW 10.4 mph 20.7 mph N/A   Scattered Clouds
1:55 PM 80.6 °F 81.8 °F 62.6 °F 54% 29.67 in 10.0 mi WSW 6.9 mph - N/A   Scattered Clouds
2:15 PM 80.6 °F 81.8 °F 62.6 °F 54% 29.67 in 10.0 mi WSW 8.1 mph - N/A   Scattered Clouds
2:35 PM 82.4 °F 83.9 °F 64.4 °F 54% 29.67 in 10.0 mi SW 9.2 mph - N/A   Mostly Cloudy
2:55 PM 78.8 °F - 62.6 °F 57% 29.67 in 10.0 mi WSW 8.1 mph 17.3 mph N/A   Mostly Cloudy
3:15 PM 82.4 °F 83.9 °F 64.4 °F 54% 29.67 in 10.0 mi West 13.8 mph 17.3 mph N/A   Mostly Cloudy
3:35 PM 82.4 °F 83.4 °F 62.6 °F 51% 29.66 in 10.0 mi SW 13.8 mph 18.4 mph N/A   Scattered Clouds
3:55 PM 80.6 °F 81.8 °F 62.6 °F 54% 29.67 in 10.0 mi WSW 11.5 mph 16.1 mph N/A   Scattered Clouds
4:15 PM 80.6 °F 81.8 °F 62.6 °F 54% 29.66 in 10.0 mi SW 12.7 mph - N/A   Mostly Cloudy
4:35 PM 82.4 °F 83.4 °F 62.6 °F 51% 29.66 in 10.0 mi WSW 11.5 mph - N/A   Scattered Clouds
4:55 PM 80.6 °F 81.8 °F 62.6 °F 54% 29.66 in 10.0 mi West 8.1 mph - N/A   Mostly Cloudy
5:15 PM 80.6 °F 82.3 °F 64.4 °F 58% 29.66 in 10.0 mi West 8.1 mph - N/A   Overcast
5:35 PM 82.4 °F 83.9 °F 64.4 °F 54% 29.65 in 10.0 mi West 9.2 mph - N/A   Mostly Cloudy
5:55 PM 80.6 °F 81.8 °F 62.6 °F 54% 29.65 in 10.0 mi SW 10.4 mph - N/A   Scattered Clouds
6:15 PM 80.6 °F 82.3 °F 64.4 °F 58% 29.65 in 10.0 mi West 6.9 mph - N/A   Scattered Clouds
6:35 PM 80.6 °F 81.8 °F 62.6 °F 54% 29.65 in 10.0 mi West 5.8 mph - N/A   Mostly Cloudy
6:55 PM 80.6 °F 81.8 °F 62.6 °F 54% 29.65 in 10.0 mi West 6.9 mph - N/A   Scattered Clouds
7:15 PM 80.6 °F 81.8 °F 62.6 °F 54% 29.65 in 10.0 mi WSW 5.8 mph - N/A   Scattered Clouds
7:35 PM 80.6 °F 81.8 °F 62.6 °F 54% 29.66 in 10.0 mi West 8.1 mph - N/A   Clear
7:55 PM 78.8 °F - 62.6 °F 57% 29.66 in 10.0 mi West 4.6 mph - N/A   Clear
8:15 PM 78.8 °F - 62.6 °F 57% 29.67 in 10.0 mi West 3.5 mph - N/A   Scattered Clouds
8:35 PM 77.0 °F - 62.6 °F 61% 29.67 in 10.0 mi Calm Calm - N/A   Scattered Clouds
8:55 PM 75.2 °F - 62.6 °F 65% 29.67 in 10.0 mi NW 3.5 mph - N/A   Clear
9:15 PM 71.6 °F - 62.6 °F 73% 29.67 in 10.0 mi NNW 3.5 mph - N/A   Clear
9:35 PM 73.4 °F - 62.6 °F 69% 29.67 in 10.0 mi WNW 4.6 mph - N/A   Clear
9:55 PM 69.8 °F - 60.8 °F 73% 29.69 in 10.0 mi North 8.1 mph - N/A   Mostly Cloudy
10:15 PM 68.0 °F - 60.8 °F 78% 29.70 in 10.0 mi North 5.8 mph - N/A Rain Light Rain
10:35 PM 68.0 °F - 62.6 °F 83% 29.72 in 10.0 mi SW 6.9 mph - N/A Rain Light Rain
10:55 PM 64.4 °F - 62.6 °F 94% 29.73 in 4.0 mi Calm Calm - N/A Rain Light Rain
11:15 PM 64.4 °F - 62.6 °F 94% 29.72 in 4.0 mi Calm Calm - N/A Rain Rain
11:35 PM 64.4 °F - 60.8 °F 88% 29.74 in 10.0 mi NNW 6.9 mph 18.4 mph N/A Rain Rain
11:55 PM 62.6 °F - 60.8 °F 94% 29.71 in 10.0 mi NE 6.9 mph - N/A Rain Light Rain